AQI (53)

Current Conditions for Foresthill, CA. Sunny, Dry   
Visibility: 10 miles
Space WX Alerts: EXTENDED WARNING:  Geomagnetic K-index of 4 expected ( Latest Alert ) - Issue Time: 2018 Jul 06 0255 UTC

  Summary / Temperature 

Current Temperature
89.4°F
31.9°C
(24/hr Ago)
88.4°F
(Apparent temp)
93.1°F
Warm
Heat Index
90.1°F 

98.7°F/ 37.1°C
Evident discomfort

 Temp Rate:

 24/hr Difference:

 Avg Running Temp:

 Todays High:

 Todays Low:

 Y-days High:

 Y-days Low:

 Todays HeatIdx:

 Y-days HeatIdx:

 Evapotranspiration:

+2.5°F/hr 

+1°F

87.1°F

89.4°F 1:32pm

71.0°F 6:35am

89.5°F 2:50pm

72.6°F 6:14am

90.2°F 1:25pm

88.9°F 1:27pm

0.111 in

115' Above Ground

 Temperature:

 6'AGL VRS 115'AGL:

 Avg Running Temp:

 Humidity:

 Todays High:

 Todays Low:

 Y-days High:

 Y-days Low:

89.0°F 

-0.4°F

87.8°F

43% 

89.0°F 12:29pm

73.0°F 6:05am

90.0°F 3:37pm

75.0°F 4:06am

Temp & Humidity Graphs

  Wind 

Wind Speed

 Calm

Gusting to

 8.0 mph

Wind from WSW

242°  WSW

Calm

 Avg speed:

 Wind Run:

 Peak Gust:

  1.0 mph 

30.0 miles

  16.0 mph 3:22am

  Almanac  

Moon age: 4 days,6 hours,32 minutes,19%

Waxing Crescent
19%
Illuminated
4 days in cycle

 Moonrise:

 Moonset:

 Sunrise:

 Sunset:

 Solar Noon:

10:02am

11:20pm

5:51am

8:28pm

1:10pm

1min 17s less daylight tomorrow 

  Solar Radiation 

(Current Solar)
  911 W/m2 (83%)
(Todays High)
 921 W/m2@12:48pm
Feels like: 110.1°F in the sun

Rain

 Rain Today:

 Rain Rate (/hr):

 Rain last hour:

 Rain Yesterday:

 This Month:

 Season Total:

51 Days Since Last Rain Day

0.00 in

0.000 in

0.00 in

0.00 in

0.00 in

0.00 in

Updated Time

Updated: 7/16/18  1:38pm

(Updated  sec ago)

Humidity & Barometer

 Humidity:

 Wetbulb:

 Dew Point:

 Barometer:

41% 

72.1°F 

62.6°F 

29.914 inHg 

 Baro Trend:  Steady 
Northern Calif
Preparedness
Fire 
Level 

    UV Index  

(Current UV)
9.1  Very High
(Todays High) @ 12:58pm
9.3   Very High

National Weather Service Forecast

This
Afternoon
This Afternoon: Sunny
Sunny
Tonight

Tonight: Clear
Clear
Tuesday

Tuesday: Sunny
Sunny
Tuesday
Night
Tuesday Night: Mostly Clear
Mostly Clear
Wednesday

Wednesday: Sunny
Sunny
Wednesday
Night
Wednesday Night: Mostly Clear
Mostly Clear
Hi 93 °F Lo 70 °F Hi 96 °F Lo 71 °F Hi 96 °F Lo 73 °F

Foresthill Probe 2 Stats  
Foresthill Probe 2: is located on Thomas Street
at 3000 feet. The main Foresthill Weather site
is located on Melody ln at the 2860 foot elevation

Calm
92.9°F
33.8°C
Temp Rate:
+1.5°F
Calm
Gusting to
3.0 mph
(Humidity)
36%
Wind from WSW
255°  WSW
Updated: 16/07/18 - 13:33:05
 Todays High: 94.7°F 13:01
 Todays Low: 69.7°F 05:43
 Rain Today: 0.00 in
 Season Total: 0.00 in

Foresthill Wx: Monthly,Yearly, Highs and Lows 

Foresthill  
This Weather Data is coming from the main Foresthill
Weather site located on Melody ln at the 2860 foot
elevation
Not Foresthill Probe 2
Weather Data
Month
  High
Month
  Low
Year
High
Year
Low
Temp 90.4°F
7/8/18
60.2°F
7/5/18
91.4°F
6/24/18
21.9°F
2/23/18
Humidity 73%
7/4/18
12%
7/8/18
100%
1/8/18
12%
7/8/18
Heat Index 90.2°F
7/16/18
63.2°F
7/5/18
90.2°F
7/16/18
27.1°F
2/20/18
Wind Chill 90.4°F
7/8/18
58.8°F
7/5/18
91.4°F
6/24/18
9.2°F
2/23/18
Wind Gust 20 mph
7/3/18
0 mph
7/1/18
43 mph
3/1/18
0 mph
1/1/18
Barometer 30.18 in
7/5/18
29.73 in
7/3/18
30.55 in
1/27/18
29.60 in
6/16/18
ET 0.25 in
7/8/18
0.00 in
7/1/18
0.25 in
6/24/18
0.00 in
1/1/18
Dew Point 65.3°F
7/15/18
28.9°F
7/8/18
65.3°F
7/15/18
7.6°F
2/11/18
Pacific Satellite US Radar Satellite Imagery Sacramento,CA.  (click to enlarge)
NWS Weather Forecast - Summary
Updated: Monday, July 16, 2018 - 3:20am PDT
Current Interstate Highway Conditions for I-80 & US-50

[I 80: IN THE SAN FRANCISCO BAY AREA - SOLANO CO]
no traffic restrictions are reported for this area.

[I 80: IN THE NORTHERN CALIFORNIA AREA & SIERRA NEVADA]
no traffic restrictions are reported for this area.

[US 50: IN THE SACRAMENTO VALLEY & THE LAKE TAHOE BASIN]
no traffic restrictions are reported for this area.
NWS Weather Forecast: This Afternoon and Tonight (Updated: Mon, 16-Jul-2018 9:33am PDT)
This
Afternoon
This Afternoon: Sunny
Sunny

Hi 93 °F
NWS forecast: Sunny, with a high near 93. West southwest wind around 8 mph.
Tonight

Tonight: Clear
Clear

Lo 70 °F
NWS forecast: Clear, with a low around 70. Northeast wind 5 to 8 mph.
YR.NO 10 Day Weather forecast
Last update: 07/16/2018 @ 00:37
Next update: 07/16/2018 @ 13:00
Provided by: 22
      Temperature Precipitation Pressure Wind  
Today
07/16/2018
12:00 18:00 91°F   29.92 inHg Light breeze from west-southwest 7 mph
  18:00 00:00 90°F   29.87 inHg Light breeze from west-southwest 6 mph
    (Click to enlarge)
meteogram

    Forecast for next 9 days

      Temperature Precip Pressure Wind  
Tuesday
07/17/2018
00:00 06:00 66°F   29.92 inHg Light breeze from east-northeast 4 mph
  06:00 12:00 61°F   29.93 inHg Light breeze from east-northeast 6 mph
  12:00 18:00 93°F   29.93 inHg Light breeze from west-southwest 7 mph
  18:00 00:00 93°F   29.86 inHg Light breeze from west-southwest 5 mph
      Temperature Precip Pressure Wind  
Wednesday
07/18/2018
00:00 06:00 66°F   29.91 inHg Light breeze from east-northeast 4 mph
  06:00 12:00 63°F   29.89 inHg Light breeze from east-northeast 7 mph
  12:00 18:00 97°F   29.90 inHg Light breeze from west-southwest 7 mph
  17:00 23:00 97°F   29.81 inHg Light breeze from west 6 mph
  23:00 05:00 77°F   29.87 inHg Light breeze from east 4 mph
      Temperature Precip Pressure Wind  
Thursday
07/19/2018
05:00 11:00 64°F   29.85 inHg Light breeze from east-northeast 7 mph
  11:00 17:00 93°F   29.87 inHg Light breeze from southwest 7 mph
  17:00 23:00 95°F   29.81 inHg Light breeze from southwest 6 mph
  23:00 05:00 73°F   29.89 inHg Light air from east-southeast 1 mph
      Temperature Precip Pressure Wind  
Friday
07/20/2018
05:00 11:00 61°F   29.89 inHg Light air from east-northeast 2 mph
  11:00 17:00 90°F   29.91 inHg Light breeze from west-southwest 5 mph
  17:00 23:00 91°F   29.84 inHg Light breeze from west-southwest 7 mph
  23:00 05:00 72°F   29.92 inHg Light breeze from east-southeast 5 mph
      Temperature Precip Pressure Wind  
Saturday
07/21/2018
05:00 11:00 64°F   29.94 inHg Light air from east 2 mph
  11:00 17:00 86°F   29.95 inHg Light breeze from west-southwest 6 mph
  17:00 23:00 90°F   29.89 inHg Light breeze from west-southwest 7 mph
  23:00 05:00 73°F   29.97 inHg Light air from east-southeast 2 mph
      Temperature Precip Pressure Wind  
Sunday
07/22/2018
05:00 11:00 64°F   29.98 inHg Light breeze from east-northeast 5 mph
  11:00 17:00 88°F   29.98 inHg Light breeze from west-southwest 7 mph
  17:00 23:00 90°F   29.95 inHg Light breeze from southwest 7 mph
  23:00 05:00 75°F   30.00 inHg Light air from east 3 mph
      Temperature Precip Pressure Wind  
Monday
07/23/2018
05:00 11:00 66°F   29.98 inHg Light breeze from east-northeast 4 mph
  11:00 17:00 90°F   29.98 inHg Light breeze from west-southwest 6 mph
  17:00 23:00 91°F   29.94 inHg Light breeze from southwest 7 mph
  23:00 05:00 75°F   29.99 inHg Light air from east 2 mph
      Temperature Precip Pressure Wind  
Tuesday
07/24/2018
05:00 11:00 64°F   29.95 inHg Light breeze from east-northeast 5 mph
  11:00 17:00 91°F   29.97 inHg Light breeze from west-southwest 6 mph
  17:00 23:00 93°F   29.92 inHg Light breeze from west-southwest 7 mph
  23:00 05:00 75°F   29.96 inHg Light breeze from east-northeast 4 mph
      Temperature Precip Pressure Wind  
Wednesday
07/25/2018
05:00 11:00 64°F   29.93 inHg Light breeze from east-northeast 6 mph
  11:00 17:00 95°F   29.94 inHg Light breeze from west-southwest 7 mph

NOAA Local Storm Report
11 MILES SOUTH OF QUINTER   ( More )
DATE
07/15/2018
TIME
6:50 PM
COUNTY
GOVE
STATE
KS
GEOGRAPHIC
38.91N 100.23W
SOURCE
TRAINED SPOTTER
HEAVY RAIN ESTIMATED AT 1.25 INCH
rain amount fell within a 30 min time frame.
How Close Are We To this Month's Temperature Record ?
Updated Monday, Jul 16, 2018- 1:30:00 PM

Current Temperature: 89.4°F

July's High: Temperature Record 98.1°F - Set on Wed, Jul 29, 2015 - 2:57:00 PM
We are currently 8.7°F Less than this Month's record High

July's Low: Temperature Record 51.4°F - Set on Sun, Jul 10, 2016 - 7:04:00 AM
We are currently 38°F More than this Month's record Low

Weather History For Monday, July 16, 2018


On this Day - In Weather History ...
Data courtesy of weatherforyou.com
powered by Cumulus v1.9.3 (1059)
Ambient Weather VWS v14.00
Top Contact Website Map Copyright © 2007 - 2018 Foresthillweather.com Never base important decisions on this or any weather information obtained from the Internet